CW0179 Weather Reports


Display with metric or nautical units.
time (UTC)temp
F
wind
direction
speed
MPH
gust
MPH
rain 1hr
in
rain 24hr
in
rain mn
in
humidity
%
barometer
mb
20260508212850 60 96 1.0 7.0 0.00 0.01 0.01 50 1010.6
20260508211859 61 158 1.0 6.0 0.00 0.01 0.01 48 1010.5
20260508210919 61 141 1.0 6.0 0.00 0.01 0.01 49 1010.6
20260508205916 62 194 1.0 5.0 0.00 0.01 0.01 47 1010.5
20260508204925 62 127 0.0 7.0 0.00 0.01 0.01 50 1010.4
20260508203905 62 91 1.0 7.0 0.00 0.01 0.01 50 1010.3
20260508202928 61 193 2.0 10.0 0.00 0.01 0.01 50 1010.4
20260508201941 61 139 1.0 9.0 0.00 0.01 0.01 52 1010.6
20260508200923 61 139 2.0 10.0 0.00 0.01 0.01 52 1010.3
20260508195924 60 194 2.0 9.0 0.00 0.01 0.01 55 1010.7
20260508194908 58 77 1.0 9.0 0.00 0.01 0.01 56 1010.8
20260508193838 59 131 3.0 11.0 0.00 0.01 0.01 52 1010.9
20260508192828 60 95 3.0 11.0 0.00 0.01 0.01 49 1010.7
20260508191803 62 5 1.0 8.0 0.00 0.01 0.01 48 1010.7
20260508185637 62 195 0.0 11.0 0.00 0.01 0.01 51 1010.5
20260508184652 60 78 1.0 12.0 0.00 0.01 0.01 53 1010.4
20260508183715 60 169 1.0 12.0 0.00 0.01 0.01 49 1010.5
20260508182738 61 150 0.0 0.0 0.00 0.01 0.01 47 1010.3
20260508181705 61 213 1.0 5.0 0.00 0.01 0.01 49 1010.1
20260508180654 61 150 1.0 9.0 0.00 0.01 0.01 46 1010.2
20260508175620 61 120 1.0 9.0 0.00 0.01 0.01 48 1010.3
20260508174635 59 136 0.0 5.0 0.00 0.01 0.01 49 1010.3
20260508173616 59 116 0.0 10.0 0.00 0.01 0.01 48 1010.4
20260508172626 60 136 1.0 10.0 0.00 0.01 0.01 47 1010.3
20260508171645 61 131 2.0 8.0 0.00 0.01 0.01 47 1010.2
20260508165513 61 302 1.0 6.0 0.00 0.01 0.01 48 1010.3
20260508164446 62 37 1.0 6.0 0.00 0.01 0.01 45 1010.5
20260508163452 62 194 1.0 7.0 0.00 0.01 0.01 44 1010.5
20260508160258 62 125 1.0 8.0 0.00 0.01 0.01 43 1010.8
20260508153001 61 148 0.0 8.0 0.00 0.01 0.01 43 1010.9
20260508151927 61 91 1.0 8.0 0.00 0.01 0.01 42 1010.9
20260508150900 60 102 1.0 7.0 0.00 0.01 0.01 39 1011.1
20260508145849 61 233 1.0 7.0 0.00 0.01 0.01 43 1011.2
20260508143731 60 98 0.0 4.0 0.00 0.01 0.01 53 1011.3
20260508142755 59 96 0.0 4.0 0.00 0.01 0.01 55 1011.1
20260508141814 58 155 1.0 7.0 0.00 0.01 0.01 58 1011.0
20260508140758 58 191 1.0 7.0 0.00 0.01 0.01 53 1011.1
20260508135759 58 167 0.0 3.0 0.00 0.01 0.01 58 1011.2
20260508134732 57 143 1.0 6.0 0.00 0.01 0.01 56 1011.3
20260508125235 54 217 1.0 8.0 0.00 0.01 0.01 69 1011.9
20260508124257 54 162 1.0 8.0 0.00 0.01 0.01 70 1011.8
20260508123305 54 129 0.0 4.0 0.00 0.01 0.01 70 1011.7
20260508122239 53 108 0.0 4.0 0.00 0.01 0.01 72 1011.7
20260508121211 53 158 0.0 4.0 0.00 0.01 0.01 73 1011.7
20260508120233 52 136 0.0 0.0 0.00 0.01 0.01 76 1011.5
20260508115217 51 123 0.0 6.0 0.00 0.01 0.01 77 1011.4
20260508114217 51 163 0.0 6.0 0.00 0.01 0.01 79 1011.4
20260508113242 50 232 0.0 3.0 0.00 0.01 0.01 80 1011.5
20260508110032 47 141 0.0 0.0 0.00 0.01 0.01 86 1011.2
20260508105044 46 136 0.0 2.0 0.00 0.01 0.01 89 1011.1
20260508104016 45 158 0.0 1.0 0.00 0.01 0.01 90 1011.1
20260508103019 45 172 0.0 0.0 0.00 0.01 0.01 90 1011.0
20260508101952 45 156 0.0 0.0 0.00 0.01 0.01 90 1010.9
20260508100954 45 156 0.0 0.0 0.00 0.01 0.01 89 1010.9
20260508094753 46 167 0.0 0.0 0.00 0.01 0.01 89 1010.7
20260508093749 46 167 0.0 0.0 0.00 0.01 0.01 89 1010.7
20260508091706 46 167 0.0 0.0 0.00 0.01 0.01 89 1010.4
20260508090635 46 167 0.0 0.0 0.00 0.01 0.01 89 1010.3
20260508085648 46 168 0.0 0.0 0.00 0.01 0.01 89 1010.5
20260508084703 46 158 0.0 0.0 0.00 0.01 0.01 89 1010.4
20260508083644 46 158 0.0 0.0 0.00 0.01 0.01 88 1010.4
20260508081516 46 160 0.0 0.0 0.00 0.04 0.01 87 1010.2
20260508080510 46 186 0.0 1.0 0.00 0.04 0.01 87 1010.3
20260508075532 46 210 0.0 0.0 0.00 0.04 0.01 88 1010.5
20260508073408 45 148 0.0 0.0 0.00 0.07 0.01 87 1010.5
20260508072420 46 147 0.0 0.0 0.00 0.08 0.01 87 1010.7
20260508071403 46 166 0.0 0.0 0.00 0.10 0.01 86 1010.8
20260508070358 46 162 0.0 1.0 0.00 0.10 0.01 85 1010.9
20260508063035 48 133 0.0 1.0 0.00 0.13 0.00 67 1010.2
20260508062020 48 184 0.0 2.0 0.00 0.13 0.00 68 1010.0
20260508061005 47 171 0.0 0.0 0.00 0.17 0.00 69 1008.9
20260508053724 43 143 0.0 0.0 0.00 0.19 0.00 91 1008.8
20260508051630 42 142 0.0 0.0 0.00 0.19 0.00 91 1008.8
20260508050646 42 142 0.0 0.0 0.00 0.19 0.00 91 1008.8
20260508045635 42 143 0.0 0.0 0.00 0.19 0.00 91 1008.6
20260508044655 42 142 0.0 0.0 0.00 0.19 0.00 91 1008.6
20260508043652 42 142 0.0 0.0 0.00 0.19 0.00 91 1008.6
20260508041535 42 143 0.0 0.0 0.00 0.19 0.00 90 1008.8
20260508040523 42 142 0.0 0.0 0.00 0.19 0.00 89 1008.9
20260508035459 43 143 0.0 0.0 0.00 0.19 0.20 87 1008.9
20260508034425 43 142 0.0 0.0 0.00 0.19 0.20 87 1008.8
20260508033418 44 143 0.0 0.0 0.00 0.19 0.20 87 1008.9
20260508032359 44 143 0.0 0.0 0.00 0.19 0.20 86 1008.8
20260508025151 44 143 0.0 0.0 0.00 0.19 0.20 83 1008.8
20260508024146 45 142 0.0 0.0 0.00 0.19 0.20 83 1008.6
20260508023203 45 143 0.0 0.0 0.00 0.19 0.20 82 1008.7
20260508022204 45 143 0.0 0.0 0.00 0.19 0.20 81 1008.6
20260508021130 46 142 0.0 0.0 0.00 0.20 0.20 80 1008.6
20260508020154 46 142 0.0 0.0 0.00 0.20 0.20 79 1008.6
20260508015207 47 143 0.0 0.0 0.00 0.21 0.20 77 1008.6
20260508012958 48 142 0.0 0.0 0.00 0.22 0.20 72 1008.4
20260508012000 49 143 0.0 0.0 0.00 0.22 0.20 70 1008.3
20260508010938 49 143 0.0 0.0 0.00 0.22 0.20 68 1008.4
20260508005959 50 142 0.0 0.0 0.00 0.22 0.20 67 1008.3
20260508003854 51 142 0.0 0.0 0.00 0.22 0.20 63 1007.9
20260508002858 52 142 0.0 0.0 0.00 0.22 0.20 61 1007.8
20260508001900 53 143 0.0 0.0 0.00 0.22 0.20 59 1007.5
20260508000837 54 143 0.0 0.0 0.00 0.22 0.20 57 1007.5
20260507235806 56 143 0.0 0.0 0.00 0.22 0.20 52 1007.4
20260507234807 56 143 0.0 0.0 0.00 0.22 0.20 49 1007.4
20260507233736 58 142 0.0 0.0 0.00 0.22 0.20 46 1007.1
20260507231553 60 136 0.0 0.0 0.00 0.22 0.20 40 1007.1
20260507225409 62 154 0.0 0.0 0.00 0.22 0.20 39 1006.9
20260507224347 63 165 0.0 3.0 0.00 0.22 0.20 37 1006.7
20260507223323 62 191 0.0 0.0 0.00 0.22 0.20 41 1006.8
20260507221154 63 170 0.0 0.0 0.00 0.22 0.20 37 1006.8
20260507220142 65 158 0.0 4.0 0.00 0.22 0.20 37 1006.8
20260507215130 65 136 0.0 6.0 0.00 0.22 0.20 37 1006.6
20260507214121 65 150 0.0 4.0 0.00 0.22 0.20 38 1006.5